When you browse on this site, cookies collect data to enhance your experience and personalize the content and advertising you see.
Visit our Privacy Policy to learn more. By continuing to use the site, you agree to this use of cookies and data.
  • en France
  • Liste des pays
  • À 7 jours
  • Température de l'eau
  • Carte météo
  • Widgets météo
  • user-avatar
    Se connecter

    Météo par heure à Saurimo

    Ce jour, 24 Février, Lundi

    Heure Température Précipitation Vent Pression Humidité
    00:00 +21°C° 0.8 mm 1 m/s 670 mmHg 98%
    01:00 +20°C° 0 mm 2 m/s 670 mmHg 97%
    02:00 +20°C° 0.8 mm 2 m/s 670 mmHg 96%
    03:00 +20°C° 0.8 mm 2 m/s 669 mmHg 96%
    04:00 +19°C° 0.8 mm 2 m/s 669 mmHg 95%
    05:00 +19°C° 0.6 mm 2 m/s 669 mmHg 95%
    06:00 +20°C° 0.6 mm 2 m/s 670 mmHg 95%
    07:00 +20°C° 0.6 mm 2 m/s 671 mmHg 95%
    08:00 +21°C° 0.1 mm 2 m/s 671 mmHg 92%
    09:00 +23°C° 0.1 mm 2 m/s 671 mmHg 90%
    10:00 +24°C° 0.1 mm 2 m/s 671 mmHg 88%
    11:00 +25°C° 0.7 mm 2 m/s 671 mmHg 84%
    12:00 +26°C° 0.7 mm 2 m/s 671 mmHg 80%
    13:00 +28°C° 0.7 mm 2 m/s 671 mmHg 75%
    14:00 +27°C° 1.6 mm 2 m/s 670 mmHg 79%
    15:00 +26°C° 1.6 mm 2 m/s 669 mmHg 84%
    16:00 +25°C° 1.6 mm 2 m/s 668 mmHg 88%
    17:00 +24°C° 0.4 mm 1 m/s 669 mmHg 90%
    18:00 +23°C° 0.4 mm 1 m/s 669 mmHg 92%
    19:00 +22°C° 0.4 mm 1 m/s 670 mmHg 95%
    20:00 +22°C° 0 mm 1 m/s 670 mmHg 95%
    21:00 +22°C° 0 mm 1 m/s 670 mmHg 95%
    22:00 +22°C° 0 mm 1 m/s 670 mmHg 95%
    23:00 +21°C° 0 mm 1 m/s 670 mmHg 95%

    Demain, 25 Février, Mardi

    Heure Température Précipitation Vent Pression Humidité
    00:00 +21°C° 0 mm 1 m/s 670 mmHg 95%
    01:00 +21°C° 0 mm 1 m/s 669 mmHg 95%
    02:00 +21°C° 0 mm 1 m/s 669 mmHg 95%
    03:00 +21°C° 0 mm 1 m/s 669 mmHg 96%
    04:00 +20°C° 0 mm 1 m/s 669 mmHg 96%
    05:00 +21°C° 0 mm 1 m/s 669 mmHg 95%
    06:00 +21°C° 0 mm 1 m/s 670 mmHg 94%
    07:00 +22°C° 0 mm 1 m/s 670 mmHg 94%
    08:00 +23°C° 0 mm 2 m/s 670 mmHg 88%
    09:00 +24°C° 0 mm 2 m/s 670 mmHg 83%
    10:00 +26°C° 0 mm 2 m/s 671 mmHg 77%
    11:00 +27°C° 0.7 mm 2 m/s 670 mmHg 75%
    12:00 +28°C° 0.7 mm 1 m/s 669 mmHg 72%
    13:00 +29°C° 0.7 mm 1 m/s 669 mmHg 70%
    14:00 +28°C° 1.5 mm 1 m/s 668 mmHg 75%
    15:00 +27°C° 1.5 mm 1 m/s 668 mmHg 80%
    16:00 +27°C° 1.5 mm 1 m/s 667 mmHg 85%
    17:00 +25°C° 0.1 mm 1 m/s 667 mmHg 87%
    18:00 +24°C° 0.1 mm 1 m/s 668 mmHg 89%
    19:00 +23°C° 0.1 mm 1 m/s 668 mmHg 92%
    20:00 +23°C° 0 mm 1 m/s 668 mmHg 92%
    21:00 +23°C° 0 mm 1 m/s 669 mmHg 92%
    22:00 +22°C° 0 mm 1 m/s 669 mmHg 92%
    23:00 +22°C° 0 mm 1 m/s 669 mmHg 93%

    Après-demain, 26 Février, Mercredi

    Heure Température Précipitation Vent Pression Humidité
    00:00 +22°C° 0 mm 1 m/s 668 mmHg 94%
    01:00 +22°C° 0 mm 1 m/s 668 mmHg 94%
    02:00 +22°C° 0 mm 1 m/s 668 mmHg 94%
    03:00 +22°C° 0 mm 1 m/s 668 mmHg 94%
    04:00 +22°C° 0 mm 1 m/s 667 mmHg 94%
    05:00 +22°C° 0 mm 1 m/s 668 mmHg 94%
    06:00 +22°C° 0 mm 1 m/s 669 mmHg 93%
    07:00 +22°C° 0 mm 1 m/s 669 mmHg 92%
    08:00 +23°C° 0.3 mm 1 m/s 669 mmHg 90%
    09:00 +23°C° 0.3 mm 2 m/s 669 mmHg 88%
    10:00 +24°C° 0.3 mm 2 m/s 669 mmHg 87%
    11:00 +26°C° 0.7 mm 2 m/s 669 mmHg 80%
    12:00 +27°C° 0.7 mm 2 m/s 669 mmHg 74%
    13:00 +29°C° 0.7 mm 2 m/s 669 mmHg 68%
    14:00 +28°C° 1.1 mm 2 m/s 669 mmHg 73%
    15:00 +27°C° 1.1 mm 2 m/s 668 mmHg 79%
    16:00 +26°C° 1.1 mm 2 m/s 668 mmHg 84%
    17:00 +25°C° 1.2 mm 1 m/s 668 mmHg 87%
    18:00 +24°C° 1.2 mm 1 m/s 668 mmHg 90%
    19:00 +23°C° 1.2 mm 1 m/s 669 mmHg 92%
    20:00 +22°C° 0.3 mm 1 m/s 669 mmHg 93%
    21:00 +22°C° 0.3 mm 1 m/s 669 mmHg 95%
    22:00 +22°C° 0.3 mm 1 m/s 670 mmHg 96%
    23:00 +21°C° 0.1 mm 1 m/s 669 mmHg 95%

    27 Février, Jeudi

    Heure Température Précipitation Vent Pression Humidité
    00:00 +21°C° 0.1 mm 1 m/s 669 mmHg 94%
    01:00 +21°C° 0.1 mm 1 m/s 668 mmHg 93%
    02:00 +20°C° 0 mm 1 m/s 668 mmHg 93%
    03:00 +20°C° 0 mm 1 m/s 668 mmHg 93%
    04:00 +20°C° 0 mm 1 m/s 668 mmHg 94%
    05:00 +21°C° 0 mm 1 m/s 669 mmHg 93%
    06:00 +21°C° 0 mm 1 m/s 669 mmHg 93%
    07:00 +22°C° 0 mm 1 m/s 670 mmHg 93%
    08:00 +23°C° 0.4 mm 2 m/s 670 mmHg 88%
    09:00 +25°C° 0.4 mm 2 m/s 671 mmHg 82%
    10:00 +27°C° 0.4 mm 2 m/s 671 mmHg 77%
    11:00 +27°C° 1.1 mm 2 m/s 671 mmHg 76%
    12:00 +28°C° 1.1 mm 2 m/s 670 mmHg 74%
    13:00 +28°C° 1.1 mm 2 m/s 670 mmHg 72%
    14:00 +27°C° 1.4 mm 2 m/s 669 mmHg 77%
    15:00 +26°C° 1.4 mm 2 m/s 669 mmHg 82%
    16:00 +25°C° 1.4 mm 2 m/s 668 mmHg 87%
    17:00 +24°C° 0.6 mm 2 m/s 669 mmHg 90%
    18:00 +23°C° 0.6 mm 2 m/s 669 mmHg 93%
    19:00 +21°C° 0.6 mm 2 m/s 669 mmHg 95%
    20:00 +21°C° 0.1 mm 2 m/s 670 mmHg 96%
    21:00 +21°C° 0.1 mm 2 m/s 670 mmHg 96%
    22:00 +22°C° 0.1 mm 1 m/s 670 mmHg 97%
    23:00 +22°C° 0 mm 1 m/s 670 mmHg 97%

    28 Février, Vendredi

    Heure Température Précipitation Vent Pression Humidité
    00:00 +21°C° 0 mm 1 m/s 670 mmHg 96%
    01:00 +21°C° 0 mm 1 m/s 669 mmHg 96%
    02:00 +21°C° 0 mm 1 m/s 669 mmHg 95%
    03:00 +21°C° 0 mm 1 m/s 669 mmHg 94%
    04:00 +21°C° 0 mm 1 m/s 669 mmHg 93%
    05:00 +21°C° 0 mm 1 m/s 669 mmHg 93%
    06:00 +21°C° 0 mm 1 m/s 670 mmHg 93%
    07:00 +19°C° 0 mm 0 m/s 670 mmHg 93%
    08:00 +22°C° 0 mm 1 m/s 671 mmHg 88%
    09:00 +24°C° 0 mm 1 m/s 671 mmHg 83%
    10:00 +25°C° 0 mm 1 m/s 672 mmHg 79%
    11:00 +26°C° 0 mm 1 m/s 671 mmHg 72%
    12:00 +28°C° 0 mm 1 m/s 671 mmHg 64%
    13:00 +30°C° 0 mm 2 m/s 670 mmHg 57%
    14:00 +30°C° 0.1 mm 2 m/s 670 mmHg 59%
    15:00 +30°C° 0.1 mm 2 m/s 669 mmHg 61%
    16:00 +29°C° 0.1 mm 2 m/s 669 mmHg 63%
    17:00 +28°C° 0.1 mm 1 m/s 669 mmHg 69%
    18:00 +26°C° 0.1 mm 1 m/s 669 mmHg 75%
    19:00 +22°C° 0.1 mm 0 m/s 669 mmHg 81%
    20:00 +23°C° 0 mm 1 m/s 669 mmHg 81%
    21:00 +23°C° 0 mm 1 m/s 670 mmHg 81%
    22:00 +23°C° 0 mm 1 m/s 670 mmHg 81%
    23:00 +23°C° 0 mm 1 m/s 670 mmHg 82%

    29 Février, Samedi

    Heure Température Précipitation Vent Pression Humidité
    00:00 +22°C° 0 mm 1 m/s 669 mmHg 82%
    01:00 +22°C° 0 mm 1 m/s 669 mmHg 83%
    02:00 +22°C° 0 mm 1 m/s 669 mmHg 81%
    03:00 +20°C° 0 mm 0 m/s 669 mmHg 80%
    04:00 +20°C° 0 mm 0 m/s 669 mmHg 78%
    05:00 +20°C° 0 mm 0 m/s 669 mmHg 79%
    06:00 +20°C° 0 mm 0 m/s 670 mmHg 80%
    07:00 +20°C° 0 mm 0 m/s 670 mmHg 82%
    08:00 +23°C° 0 mm 0 m/s 671 mmHg 75%
    09:00 +26°C° 0 mm 0 m/s 671 mmHg 68%
    10:00 +29°C° 0 mm 0 m/s 672 mmHg 61%
    11:00 +29°C° 0 mm 0 m/s 671 mmHg 57%
    12:00 +32°C° 0 mm 1 m/s 671 mmHg 53%
    13:00 +33°C° 0 mm 1 m/s 670 mmHg 49%
    14:00 +32°C° 0 mm 1 m/s 670 mmHg 50%
    15:00 +32°C° 0 mm 1 m/s 669 mmHg 52%
    16:00 +32°C° 0 mm 1 m/s 669 mmHg 54%
    17:00 +29°C° 0.1 mm 1 m/s 669 mmHg 62%
    18:00 +26°C° 0.1 mm 2 m/s 669 mmHg 70%
    19:00 +24°C° 0.1 mm 2 m/s 669 mmHg 77%
    20:00 +23°C° 0.2 mm 2 m/s 669 mmHg 82%
    21:00 +21°C° 0.2 mm 2 m/s 669 mmHg 86%
    22:00 +20°C° 0.2 mm 2 m/s 669 mmHg 91%
    23:00 +21°C° 0 mm 1 m/s 669 mmHg 89%
    Voir plus